User: anonymous   Login
Location: Gairloch Mountain Observatory
(46.1383°N, 60.9640°W)
Time: 13:36:19
(UTC-03:00)
Language:

CENTAUR R/B - Orbit

View from above orbital plane
View from above orbital plane
View from above satellite
View from above satellite

Ground track
Ground track

The orbit data is extracted from the following two-line orbital elements,

1 26906U 01040B   16204.10482812 0.00000020  00000-0  25127-4 0    03
2 26906  63.4575  99.3232 0325000 341.7307  18.2693 13.43992871    04
Epoch (UTC): 22 July 2016 02:30:57
Eccentricity: 0.0325000
inclination: 63.4575°
perigee height: 851 km
apogee height: 1337 km
right ascension of ascending node: 99.3232°
argument of perigee: 341.7307°
revolutions per day: 13.43992871
mean anomaly at epoch: 18.2693°
orbit number at epoch: 0

The dashed part of the orbit path shows where the satellite is in the earth's shadow,  

DLR